TimeEDT,TemperatureF,Dew PointF,Humidity,Sea Level PressureIn,VisibilityMPH,Wind Direction,Wind SpeedMPH,Gust SpeedMPH,PrecipitationIn,Events,Conditions,WindDirDegrees,DateUTC
12:53 AM,75.0,66.9,76,30.01,10.0,West,9.2,-,N/A,,Partly Cloudy,270,2013-08-27 04:53:00
1:53 AM,73.9,66.9,79,30.01,9.0,SW,5.8,-,N/A,,Mostly Cloudy,230,2013-08-27 05:53:00
2:53 AM,72.0,68.0,87,29.99,7.0,West,5.8,-,0.00,Rain,Light Rain,260,2013-08-27 06:53:00
3:53 AM,72.0,68.0,87,29.99,7.0,SW,5.8,-,0.01,,Mostly Cloudy,230,2013-08-27 07:53:00
4:53 AM,72.0,68.0,87,29.99,7.0,WSW,4.6,-,N/A,,Mostly Cloudy,240,2013-08-27 08:53:00
5:53 AM,72.0,68.0,87,29.98,7.0,SW,5.8,-,N/A,,Partly Cloudy,230,2013-08-27 09:53:00
6:53 AM,72.0,68.0,87,29.99,7.0,SW,6.9,-,N/A,,Scattered Clouds,230,2013-08-27 10:53:00
7:53 AM,73.0,69.1,87,29.99,5.0,WSW,8.1,-,N/A,,Clear,240,2013-08-27 11:53:00
8:53 AM,73.0,69.1,87,30.00,6.0,WSW,8.1,-,0.00,,Overcast,250,2013-08-27 12:53:00
9:53 AM,73.0,70.0,90,30.03,4.0,WNW,3.5,-,0.00,,Scattered Clouds,290,2013-08-27 13:53:00
10:53 AM,73.0,70.0,90,29.97,4.0,SSE,9.2,-,0.00,,Scattered Clouds,150,2013-08-27 14:53:00
11:53 AM,75.9,71.1,85,29.99,6.0,SW,5.8,-,N/A,,Haze,220,2013-08-27 15:53:00
12:53 PM,78.1,71.1,79,30.00,8.0,SSW,6.9,-,N/A,,Clear,210,2013-08-27 16:53:00
1:53 PM,81.0,72.0,74,29.97,8.0,South,11.5,-,N/A,,Clear,190,2013-08-27 17:53:00
2:53 PM,82.9,72.0,69,29.95,10.0,SSW,13.8,-,N/A,,Clear,200,2013-08-27 18:53:00
3:53 PM,84.0,73.9,72,29.92,9.0,SSW,6.9,-,N/A,,Clear,210,2013-08-27 19:53:00
4:53 PM,84.0,73.0,69,29.92,9.0,SW,12.7,-,N/A,,Clear,220,2013-08-27 20:53:00
5:53 PM,82.9,75.0,77,29.91,7.0,SW,8.1,-,N/A,,Clear,220,2013-08-27 21:53:00
6:53 PM,84.0,75.0,74,29.91,8.0,WSW,5.8,-,N/A,,Clear,240,2013-08-27 22:53:00
7:53 PM,82.0,75.0,79,29.89,9.0,SW,5.8,-,N/A,,Clear,220,2013-08-27 23:53:00
8:53 PM,81.0,73.9,79,29.89,10.0,SW,6.9,-,N/A,,Clear,230,2013-08-28 00:53:00
9:53 PM,79.0,73.0,82,29.90,10.0,SW,3.5,-,N/A,,Clear,220,2013-08-28 01:53:00
10:53 PM,77.0,73.0,88,29.90,10.0,SSW,5.8,-,N/A,,Partly Cloudy,200,2013-08-28 02:53:00
11:53 PM,79.0,72.0,79,29.88,10.0,SW,10.4,-,N/A,,Clear,230,2013-08-28 03:53:00